Preview of NWS' New Version of Forecast
This preview is not operational and should not be used for support decisions.

Regional Weather Roundup (RWR)

Issued by National Weather Service (NWS)

                            
000
ASUS42 KTBW 170216
RWRFL 
FLORIDA REGIONAL WEATHER ROUNDUP
NATIONAL WEATHER SERVICE TAMPA BAY RUSKIN FL
1000 PM EDT SAT MAR 16 2019

NOTE: "FAIR" INDICATES FEW OR NO CLOUDS BELOW 12,000 FEET WITH NO
SIGNIFICANT WEATHER AND/OR OBSTRUCTIONS TO VISIBILITY.

FLZ001>010-012>015-112-114-115-170300-
PANHANDLE FLORIDA
  
CITY           SKY/WX    TMP DP  RH WIND       PRES   REMARKS
PENSACOLA      FAIR      54  34  46 N12G22    30.24S                  
PENSACOLA NAS  MOCLDY    52  38  58 N7        30.24R                  
MILTON NAS     CLOUDY    50  37  61 VRB3      30.25S                  
CRESTVIEW      CLOUDY    53  36  52 VRB5      30.26R                  
DUKE FIELD     CLOUDY    53  36  53 N8        30.23S                  
VALPARAISO     CLOUDY    53  36  51 N10       30.22S                  
MARY ESTHER    CLOUDY    53  38  57 N12       30.21F                  
PANAMA CITY    MOCLDY    53  37  54 NW9       30.22R                  
TYNDALL AFB    MOCLDY    56  36  47 N10       30.21R                  
APALACHICOLA   CLOUDY    56  40  55 NE12      30.19R                  

STATION/POSITION SKY/WX   TEMP    WIND        PRES    WAVE   SWELL
                          AIR SEA DIR/SP/G            HT/PER HT/PER
                          (F)     (DEG/KT/KT) (MB)    (FT/S) (FT/S)
30.1N   87.6W              57      10/ 17/ 21 1023.9R   3/ 4
29.2N   88.2W                      20/ 16/ 19 1024.1R   4/ 5
PANAMA CITY BEAC           53 66  360/ 10/ 13 1023.7R
TOWER C                    58      20/ 18/ 20 1021.6F

$$
FLZ011-016>038-118-127-128-134-139-239-170300-
NORTH FLORIDA
  
CITY           SKY/WX    TMP DP  RH WIND       PRES   REMARKS
MARIANNA       CLOUDY    53  35  50 N3        30.23R                  
TALLAHASSEE    CLOUDY    55  40  56 N8        30.21R                  
PERRY          FAIR      56  46  70 NE3       30.18F                  
LIVE OAK       CLEAR     55  46  71 CALM      30.19R                  
CROSS CITY     MOCLDY    57  46  67 N7        30.17R                  
LAKE CITY      FAIR      52  45  76 N6        30.18R                  
GAINESVILLE    FAIR      61  51  70 VRB3      30.18R                  
WILLISTON        N/A    N/A N/A N/A MISG        N/A                   
PALATKA        CLOUDY    57  55  94 N3        30.17R                  
MAYPORT NAS    FAIR      62  51  67 NE12      30.16S                  
JACKSONVILLE   CLOUDY    57  48  72 CALM      30.15S                  
JAX NAS        MOCLDY    62  49  62 NE8       30.16S                  
JAX CECIL      NOT AVBL                                               
FERNANDINA BEA FAIR      60  50  70 NE6       30.17S                  
ST AUGUSTINE   FAIR      61  51  70 N10       30.16S                  
PALM COAST     MOCLDY    59  52  76 N3        30.15R                  

STATION/POSITION SKY/WX   TEMP    WIND        PRES    WAVE   SWELL
                          AIR SEA DIR/SP/G            HT/PER HT/PER
                          (F)     (DEG/KT/KT) (MB)    (FT/S) (FT/S)
SHELL POINT      NOT AVBL
KEATON BEACH               56      40/  5/  7 1022.1R
CEDAR KEY                  61      40/  4/  5 1020.5R
FERNANDINA                 62 67  110/  1/  5 1022.1F
30.7N   81.3W                 63                N/A     2/11
MAYPORT                    62 65   40/  9/  9 1021.5R
31.4N   80.9W              62 63   20/  8/ 10 1021.9R   2/11   2/11
ST AUGUSTINE               62 64   20/ 15/ 16 1021.1R

$$
FLZ040-043>046-052-053-057-058-063-144-170300-
INTERIOR CENTRAL FLORIDA
  
CITY           SKY/WX    TMP DP  RH WIND       PRES   REMARKS
OCALA          CLOUDY    59  57  93 VRB3      30.16R                  
LEESBURG       FAIR      64  52  64 NE10      30.14R                  
SANFORD        CLOUDY    63  53  70 NE6       30.13S                  
ORLANDO EXEC   CLOUDY    65  53  65 NE9       30.14R                  
ORLANDO INTL   CLOUDY    66  53  63 NE12      30.13S                  
KISSIMMEE      LGT RAIN  66  57  72 E9        30.14S                  
WINTER HAVEN   MOCLDY    66  63  90 E9        30.14R                  
LAKELAND       CLEAR     66  63  88 NE13      30.12R                  
BARTOW         MOCLDY    64  63  94 NE7G16    30.12R                  
SEBRING        CLOUDY    69  67  93 NE10      30.12R                  
OKEECHOBEE     CLOUDY    66  64  94 CALM      30.12R                  

$$
FLZ041-047-054-059-064-141-147-170300-
EAST CENTRAL FLORIDA
  
CITY           SKY/WX    TMP DP  RH WIND       PRES   REMARKS
DAYTONA BEACH  FAIR      63  55  75 NE10      30.14F                  
DELAND         FAIR      61  50  67 CALM      30.14S                  
NEW SMYRNA BEA PTCLDY    63  52  67 N14       30.15F                  
JFK SPACE CTR  MOCLDY   N/A N/A N/A NE6         N/A                   
CAPE CANAVERAL FAIR      65  58  80 N7        30.12R                  
PATRICK AFB    MOCLDY    66  63  90 N10       30.12S                  
MELBOURNE      MOCLDY    67  61  81 N10       30.12S                  
VERO BEACH     CLOUDY    68  64  87 N6        30.12R                  
FT PIERCE      CLOUDY    67  64  90 CALM      30.12R                  
STUART         FAIR      70  64  83 CALM      30.12R                  

STATION/POSITION SKY/WX   TEMP    WIND        PRES    WAVE   SWELL
                          AIR SEA DIR/SP/G            HT/PER HT/PER
                          (F)     (DEG/KT/KT) (MB)    (FT/S) (FT/S)
28.5N   80.2W              69     340/ 14/ 17 1020.3R   3/ 5   2/10
28.9N   78.5W              73 75   20/ 12/ 16 1020.0R   3/10   2/10
TRIDENT PIER               65 70  360/  7/  9 1021.4R
28.4N   80.5W                 68                N/A     2/ 5
27.5N   80.2W                 72                N/A     3/ 4

$$
FLZ050-056-061-142-242-148-248-149-249-151-251-155-255-
160-260-170300-
WEST CENTRAL FLORIDA
  
CITY           SKY/WX    TMP DP  RH WIND       PRES   REMARKS
CRYSTAL RIVER  CLOUDY    63  55  77 NE7       30.14R                  
INVERNESS      CLOUDY    63  59  88 N6        30.15R                  
BROOKSVILLE    MOCLDY    68  54  60 NE6       30.13R                  
CLEARWATER AIR FAIR      70  63  78 CALM      30.11R                  
ST PETE CLEARW FAIR      70  64  81 N7        30.10R                  
TAMPA INTL     FAIR      73  63  70 NE5       30.11R                  
TAMPA EXEC     FAIR      68  63  83 E5        30.12R                  
PLANT CITY     FAIR      68  66  94 E5        30.14R                  
MACDILL AFB    MOCLDY    68  64  88 NE5       30.10R                  
PETER O KNIGHT CLOUDY    72  64  78 NE10      30.11R                  
ST PETERSBURG  FAIR      72  65  78 N6        30.09R                  
SARASOTA       FAIR      71  68  90 NE3       30.08S                  
VENICE         FAIR      72  70  94 N5        30.10S                  

STATION/POSITION SKY/WX   TEMP    WIND        PRES    WAVE   SWELL
                          AIR SEA DIR/SP/G            HT/PER HT/PER
                          (F)     (DEG/KT/KT) (MB)    (FT/S) (FT/S)
27.3N   84.2W                 74                N/A     4/ 6
CLEARWATER BEACH           72 76  360/  5/  7 1019.5R
MIDDLE TAMPA BAY           72      30/  5/  7 1019.4R
VENICE                     72 73   10/  3/  3 1018.9S

$$
FLZ066-069-070-075>078-162-262-165-265-170300-
SOUTHWEST FLORIDA AND KEYS
  
CITY           SKY/WX    TMP DP  RH WIND       PRES   REMARKS
PUNTA GORDA    FAIR      69  67  93 E5        30.12R                  
FT MYERS       FAIR      73  69  87 CALM      30.09R                  
SOUTHWEST INTL FAIR      72  68  87 NE3       30.10R                  
NAPLES         FAIR      75  72  90 CALM      30.09S                  
MARCO ISLAND   FAIR      74  71  91 N3        30.11R                  
IMMOKALEE      CLOUDY    72  70  94 CALM      30.09R                  
MARATHON       FAIR      78  67  68 CALM      30.09R                  
KEY WEST NAS   FAIR      77  68  73 SE3       30.09R                  
KEY WEST INTL  FAIR      77  69  76 E3        30.10R                  

STATION/POSITION SKY/WX   TEMP    WIND        PRES    WAVE   SWELL
                          AIR SEA DIR/SP/G            HT/PER HT/PER
                          (F)     (DEG/KT/KT) (MB)    (FT/S) (FT/S)
NAPLES                     75 79  270/  5/  6 1019.2R
26.0N   85.6W              76 80   80/ 12/ 16 1018.8R   4/ 7   2/ 7
DRY TORTUGAS               77        CALM     1019.0R
SAND KEY                   77                 1019.0R
SOMBRERO KEY               77                 1018.3R
MOLASSES REEF              77 78     CALM     1019.0R

$$
FLZ067-068-071>074-168-172>174-170300-
SOUTHEAST FLORIDA 
  
CITY           SKY/WX    TMP DP  RH WIND       PRES   REMARKS
W PALM BEACH   MOCLDY    72  69  90 N5        30.11R                  
BOCA RATON     DRIZZLE   73  70  88 N8        30.10R                  
FT LAUDER-EXEC LGT RAIN  74  73  97 NW6       30.10R                  
FT LAUDERDALE  MOCLDY    74  68  81 W10       30.09R                  
POMPANO BEACH  CLOUDY    75  70  84 NW7       30.10R                  
PEMBROKE PINES RAIN      71  68  90 SW6       30.12R FOG              
OPA LOCKA      LGT RAIN  73  67  81 W12       30.11R                  
MIAMI          LGT RAIN  72  71  97 NW6       30.11R                  
WEST KENDALL   CLOUDY    74  69  85 S5        30.09R                  
HOMESTEAD      CLOUDY    75  69  81 SW5       30.09R                  

STATION/POSITION SKY/WX   TEMP    WIND        PRES    WAVE   SWELL
                          AIR SEA DIR/SP/G            HT/PER HT/PER
                          (F)     (DEG/KT/KT) (MB)    (FT/S) (FT/S)
PORT EVERGLADES            78     200/  4/  6 1019.0R
VIRGINIA KEY               77 79  170/  3/  5 1018.4R
LAKE WORTH                 72 78  350/  6/  7 1020.5R
FOWEY ROCKS                77 77  180/  7/  8 1019.2R
SETTLEMENT POINT           75      40/  7/  8 1019.5R

$$